• In Portugal
  • List of Countries
  • For 7 days
  • Water Temperature
  • Satellite Maps
  • Weather Map
  • Weather Widgets
  • user-avatar
    Login

    Hourly Weather Diffa

    Today, 16 December, Saturday

    Time Temperature Precipitation Wind Pressure Humidity
    00:00 +25°C° 0 mm 4 mps 733 mmHg 31%
    01:00 +25°C° 0 mm 4 mps 733 mmHg 32%
    02:00 +23°C° 0 mm 4 mps 733 mmHg 33%
    03:00 +23°C° 0 mm 4 mps 732 mmHg 34%
    04:00 +22°C° 0 mm 4 mps 732 mmHg 35%
    05:00 +22°C° 0 mm 4 mps 733 mmHg 36%
    06:00 +21°C° 0 mm 4 mps 733 mmHg 37%
    07:00 +21°C° 0 mm 4 mps 733 mmHg 38%
    08:00 +23°C° 0 mm 4 mps 733 mmHg 33%
    09:00 +27°C° 0 mm 5 mps 734 mmHg 28%
    10:00 +29°C° 0 mm 6 mps 734 mmHg 23%
    11:00 +30°C° 0 mm 5 mps 734 mmHg 20%
    12:00 +33°C° 0 mm 5 mps 733 mmHg 18%
    13:00 +34°C° 0 mm 5 mps 733 mmHg 15%
    14:00 +34°C° 0 mm 5 mps 733 mmHg 14%
    15:00 +34°C° 0 mm 5 mps 732 mmHg 14%
    16:00 +34°C° 0 mm 5 mps 732 mmHg 13%
    17:00 +32°C° 0 mm 4 mps 732 mmHg 14%
    18:00 +29°C° 0 mm 3 mps 732 mmHg 15%
    19:00 +27°C° 0 mm 3 mps 732 mmHg 16%
    20:00 +27°C° 0 mm 3 mps 733 mmHg 16%
    21:00 +26°C° 0 mm 3 mps 733 mmHg 17%
    22:00 +26°C° 0 mm 3 mps 733 mmHg 17%
    23:00 +25°C° 0 mm 4 mps 733 mmHg 20%

    Tomorrow, 17 December, Sunday

    Time Temperature Precipitation Wind Pressure Humidity
    00:00 +25°C° 0 mm 4 mps 733 mmHg 23%
    01:00 +23°C° 0 mm 4 mps 733 mmHg 25%
    02:00 +22°C° 0 mm 4 mps 732 mmHg 28%
    03:00 +22°C° 0 mm 4 mps 732 mmHg 30%
    04:00 +21°C° 0 mm 3 mps 732 mmHg 32%
    05:00 +21°C° 0 mm 3 mps 732 mmHg 34%
    06:00 +21°C° 0 mm 3 mps 732 mmHg 35%
    07:00 +21°C° 0 mm 3 mps 732 mmHg 37%
    08:00 +23°C° 0 mm 4 mps 733 mmHg 31%
    09:00 +27°C° 0 mm 4 mps 733 mmHg 25%
    10:00 +30°C° 0 mm 5 mps 733 mmHg 20%
    11:00 +32°C° 0 mm 5 mps 733 mmHg 17%
    12:00 +33°C° 0 mm 4 mps 732 mmHg 15%
    13:00 +34°C° 0 mm 4 mps 732 mmHg 13%
    14:00 +35°C° 0 mm 4 mps 732 mmHg 12%
    15:00 +35°C° 0 mm 4 mps 731 mmHg 12%
    16:00 +35°C° 0 mm 4 mps 731 mmHg 11%
    17:00 +32°C° 0 mm 4 mps 731 mmHg 12%
    18:00 +29°C° 0 mm 3 mps 731 mmHg 13%
    19:00 +27°C° 0 mm 3 mps 731 mmHg 14%
    20:00 +27°C° 0 mm 3 mps 732 mmHg 13%
    21:00 +26°C° 0 mm 3 mps 732 mmHg 13%
    22:00 +26°C° 0 mm 3 mps 733 mmHg 12%
    23:00 +25°C° 0 mm 3 mps 732 mmHg 14%

    Day after tomorrow, 18 December, Monday

    Time Temperature Precipitation Wind Pressure Humidity
    00:00 +25°C° 0 mm 3 mps 732 mmHg 15%
    01:00 +23°C° 0 mm 4 mps 732 mmHg 17%
    02:00 +22°C° 0 mm 4 mps 732 mmHg 19%
    03:00 +22°C° 0 mm 4 mps 732 mmHg 21%
    04:00 +21°C° 0 mm 4 mps 731 mmHg 23%
    05:00 +21°C° 0 mm 3 mps 732 mmHg 24%
    06:00 +21°C° 0 mm 3 mps 732 mmHg 25%
    07:00 +21°C° 0 mm 3 mps 732 mmHg 26%
    08:00 +23°C° 0 mm 4 mps 733 mmHg 23%
    09:00 +27°C° 0 mm 4 mps 733 mmHg 19%
    10:00 +30°C° 0 mm 4 mps 734 mmHg 16%
    11:00 +32°C° 0 mm 4 mps 733 mmHg 14%
    12:00 +34°C° 0 mm 4 mps 732 mmHg 12%
    13:00 +35°C° 0 mm 3 mps 731 mmHg 11%
    14:00 +35°C° 0 mm 3 mps 731 mmHg 10%
    15:00 +35°C° 0 mm 3 mps 730 mmHg 10%
    16:00 +35°C° 0 mm 2 mps 729 mmHg 10%
    17:00 +33°C° 0 mm 3 mps 730 mmHg 11%
    18:00 +30°C° 0 mm 3 mps 730 mmHg 12%
    19:00 +28°C° 0 mm 3 mps 730 mmHg 14%
    20:00 +27°C° 0 mm 3 mps 731 mmHg 13%
    21:00 +27°C° 0 mm 3 mps 731 mmHg 13%
    22:00 +26°C° 0 mm 2 mps 731 mmHg 13%
    23:00 +26°C° 0 mm 3 mps 731 mmHg 13%

    19 December, Tuesday

    Time Temperature Precipitation Wind Pressure Humidity
    00:00 +25°C° 0 mm 3 mps 731 mmHg 12%
    01:00 +25°C° 0 mm 3 mps 731 mmHg 12%
    02:00 +25°C° 0 mm 3 mps 731 mmHg 13%
    03:00 +24°C° 0 mm 3 mps 731 mmHg 15%
    04:00 +22°C° 0 mm 3 mps 730 mmHg 16%
    05:00 +22°C° 0 mm 3 mps 731 mmHg 18%
    06:00 +22°C° 0 mm 3 mps 731 mmHg 20%
    07:00 +21°C° 0 mm 3 mps 731 mmHg 22%
    08:00 +25°C° 0 mm 4 mps 732 mmHg 19%
    09:00 +28°C° 0 mm 4 mps 732 mmHg 17%
    10:00 +32°C° 0 mm 4 mps 733 mmHg 14%
    11:00 +33°C° 0 mm 4 mps 732 mmHg 13%
    12:00 +34°C° 0 mm 4 mps 732 mmHg 11%
    13:00 +36°C° 0 mm 4 mps 731 mmHg 10%
    14:00 +36°C° 0 mm 4 mps 730 mmHg 10%
    15:00 +36°C° 0 mm 3 mps 730 mmHg 9%
    16:00 +36°C° 0 mm 3 mps 730 mmHg 9%
    17:00 +34°C° 0 mm 3 mps 730 mmHg 10%
    18:00 +30°C° 0 mm 3 mps 730 mmHg 11%
    19:00 +28°C° 0 mm 3 mps 731 mmHg 12%
    20:00 +28°C° 0 mm 3 mps 731 mmHg 12%
    21:00 +27°C° 0 mm 3 mps 731 mmHg 12%
    22:00 +27°C° 0 mm 3 mps 732 mmHg 11%
    23:00 +26°C° 0 mm 3 mps 731 mmHg 13%

    20 December, Wednesday

    Time Temperature Precipitation Wind Pressure Humidity
    00:00 +25°C° 0 mm 3 mps 731 mmHg 15%
    01:00 +25°C° 0 mm 3 mps 731 mmHg 16%
    02:00 +24°C° 0 mm 3 mps 731 mmHg 19%
    03:00 +24°C° 0 mm 3 mps 731 mmHg 22%
    04:00 +22°C° 0 mm 3 mps 731 mmHg 25%
    05:00 +22°C° 0 mm 3 mps 731 mmHg 27%
    06:00 +22°C° 0 mm 3 mps 731 mmHg 28%
    07:00 +22°C° 0 mm 3 mps 732 mmHg 29%
    08:00 +25°C° 0 mm 4 mps 732 mmHg 26%
    09:00 +28°C° 0 mm 4 mps 733 mmHg 22%
    10:00 +30°C° 0 mm 5 mps 733 mmHg 18%
    11:00 +33°C° 0 mm 5 mps 732 mmHg 16%
    12:00 +34°C° 0 mm 5 mps 732 mmHg 14%
    13:00 +36°C° 0 mm 5 mps 731 mmHg 11%
    14:00 +36°C° 0 mm 5 mps 731 mmHg 11%
    15:00 +36°C° 0 mm 5 mps 731 mmHg 11%
    16:00 +36°C° 0 mm 4 mps 730 mmHg 10%
    17:00 +34°C° 0 mm 4 mps 730 mmHg 12%
    18:00 +32°C° 0 mm 4 mps 731 mmHg 13%
    19:00 +29°C° 0 mm 3 mps 731 mmHg 14%
    20:00 +28°C° 0 mm 3 mps 731 mmHg 14%
    21:00 +28°C° 0 mm 3 mps 732 mmHg 15%
    22:00 +27°C° 0 mm 3 mps 732 mmHg 15%
    23:00 +27°C° 0 mm 3 mps 732 mmHg 18%

    21 December, Thursday

    Time Temperature Precipitation Wind Pressure Humidity
    00:00 +26°C° 0 mm 3 mps 732 mmHg 21%
    01:00 +25°C° 0 mm 3 mps 732 mmHg 23%
    02:00 +25°C° 0 mm 3 mps 731 mmHg 26%
    03:00 +25°C° 0 mm 3 mps 731 mmHg 28%
    04:00 +24°C° 0 mm 3 mps 731 mmHg 30%
    05:00 +23°C° 0 mm 4 mps 732 mmHg 31%
    06:00 +23°C° 0 mm 4 mps 732 mmHg 32%
    07:00 +22°C° 0 mm 4 mps 732 mmHg 33%
    08:00 +26°C° 0 mm 4 mps 733 mmHg 29%
    09:00 +28°C° 0 mm 5 mps 733 mmHg 24%
    10:00 +32°C° 0 mm 6 mps 733 mmHg 20%
    11:00 +33°C° 0 mm 6 mps 733 mmHg 18%
    12:00 +35°C° 0 mm 6 mps 732 mmHg 15%
    13:00 +37°C° 0 mm 5 mps 732 mmHg 12%
    14:00 +37°C° 0 mm 5 mps 732 mmHg 12%
    15:00 +36°C° 0 mm 5 mps 731 mmHg 11%
    16:00 +36°C° 0 mm 5 mps 731 mmHg 11%
    17:00 +35°C° 0 mm 5 mps 731 mmHg 12%
    18:00 +33°C° 0 mm 4 mps 731 mmHg 13%
    19:00 +30°C° 0 mm 3 mps 732 mmHg 14%
    20:00 +30°C° 0 mm 4 mps 732 mmHg 16%
    21:00 +29°C° 0 mm 4 mps 732 mmHg 17%
    22:00 +29°C° 0 mm 4 mps 733 mmHg 19%
    23:00 +28°C° 0 mm 4 mps 733 mmHg 22%
    Show more